STARLINK-2647, 48658

Orbit data source: Space-Track

STARLINK-2647, 48658 is a payload satellite owned by SpaceX/Seattle (US) in LEO that was launched on Wed, 26 May 2021 UTC via an FALCON 9 launch vehicle from the Air Force Eastern Test Range (AFETR). Payload-class satellites include a variety of spacecraft equipped with specific instruments for various scientific and technological missions. These include communications satellites like Starlink; space stations such as the ISS; scientific satellites like the Hubble; Earth observation satellites from companies like Planet Labs, Umbra, and HawkEye 360; GPS; miniature CubeSats for education and research; and military/defense satellites.

Loading next visibility...
Identifier
48658, 2021-044W
Orbit
LEO
Country
Flag of USUS
Related business
Manufacturer
SpaceX/Seattle
Mission
Operational Commercial Communications
Bus & Motor
STARLINK, Unknown motor
Mass
260 kg wet, ~248 kg dry
Launch date (UTC)
2021-05-26 (5 years ago)
Launch vehicle
FALCON 9
Launch site
Air Force Eastern Test Range (AFETR)
Object type
Payload
Rocket body
Debris
Shape & HBR
Box + 1 Pan, 10.1 m
Radar Cross Section
13.562 m², Large (>1 m²)

Expand to show TLE details & history
Last TLE update: 1 day ago

TLE from 1 day ago
0 STARLINK-2647
1 48658U 21044W   25348.73714103  .00001053  00000-0  89558-4 0  9998
2 48658  53.0543 142.9835 0001250  87.1171 272.9961 15.06392726250901
Epoch: 2025-12-14T17:41Z
TLE epoch observation values (Epoch: 2025-12-14T17:41:28.984Z)
Latitude
-0.00005°
Longitude
153.96693°
Altitude
548.068 km
Speed
7.589 km/s
True Right ascension
09h 31m 56s
True Declination
0° 00' 00"
Sunlit
Object was in full shadow at epoch
Visualization orbit readout
Latitude
Unknown
Longitude
Unknown
Altitude
Unknown
Speed
Unknown
Apparent Right ascension
Unknown
Apparent Declination
Unknown
Sunlit
N/A
Visualization observer readout
Local Sidereal Time
23:01:36
Azimuth
Unknown
Elevation
Unknown
Doppler factor
Unknown
Orbital elements
Apogee altitude
548.37 km
Perigee altitude
546.639 km
Semi-major axis
6,925.642 km
Eccentricity
0.00013
Inclination
53.0543°
RAAN
142.9835°
Arg. of periapsis
87.1171°
True anomaly
272.9818°
Mean anomaly
272.9961°
Eccentric anomaly
272.98895°
Mean motion
3.76576 °/min
Orbital period
95.6 mins
BSTAR
0.000089558
Loading maneuver chart data...
Computing Atmospheric mass density...
Loading historical data...
Loading historical data...
Loading historical data...
Loading historical data...
Loading historical data...
Loading historical data...
Loading historical data...

Documentation

Showing up to 5 results
|